Zurück zum Katalog

STARLINK-32167

AktivKommunikationVLEO
NORAD 60268·PAYLOAD·🇺🇸 United States

Gestartet Jul 27, 2024 von Cape Canaveral Space Force Station

Loading…

Nächste Überflüge (nächste 24 Stunden)

TLE

AktuellSource: CelesTrak SupGP

Epoche: Sep 14, 2026, 21:02 UTC

1 60268C 24131P   26257.87687500  .00045753  00000+0  13518-2 0  2576
2 60268  53.1574 251.9518 0001349  80.5744  94.8953 15.34367629    10

Verfolge STARLINK-32167 in Echtzeit mit AllMySat

Download on the App Store